Home > Weather > Hampton > Past weeks

Flag for U.S.A. Weather for the Past 2 Weeks in Hampton, Virginia, U.S.A.

Now
43 °F

Sunny.


Feels Like: 38 °F
Forecast: 35 / 44 °F
Wind: 8 mph from East

Location: Langley Air Force Base

Current Time: Feb 6, 2016 at 4:12:05 PM

Latest Report: Feb 6, 2016 at 2:58 PM


Visibility: 10 mi

Pressure: 30.35 "Hg

Humidity: 50%

Dew point: 26 °F

Location of HamptonLocation

Historic Weather in Hampton — Graph

°F

Hampton Temperature Yesterday

Maximum temperature yesterday: 44 °F (at 2:58 PM)
Minimum temperature yesterday: 30 °F (at 11:58 PM)
Average temperature yesterday: 38 °F

High & Low Weather Summary for the Past Weeks

 TemperatureHumidityPressure
High72 °F (Feb 1, 2:58 PM)100% (Jan 22, 11:03 PM)30.49 "Hg (Jan 22, 11:03 PM)
Low25 °F (Jan 30, 6:58 AM)28% (Jan 30, 2:58 PM)29.27 "Hg (Jan 23, 3:00 AM)
Average43 °F75%30.01 "Hg
* Reported Jan 22 2:03 PM — Feb 6 2:58 PM, Hampton, Weather by CustomWeather, © 2016

Note: Actual official high and low records may vary slightly from our data, if they occured in-between our weather recording intervals... More about our weather records

Advertising

Hampton Weather History for the Previous 24 Hours

 ConditionsComfort  
Time TempWeatherWind HumidityBarometerVisibility
2:58 PM
Sat, Feb 6
43 °FSunny.8 mph50%30.35 "Hg10 mi
1:58 PM43 °FSunny.8 mph56%30.36 "Hg10 mi
12:58 PM43 °FPassing clouds.3 mph55%30.41 "Hg10 mi
11:58 AM41 °FPassing clouds.2 mph55%30.45 "Hg10 mi
10:58 AM40 °FSunny.No wind59%30.49 "Hg10 mi
9:58 AM38 °FSunny.1 mph71%30.49 "Hg10 mi
8:58 AM35 °FSunny.No wind74%30.49 "Hg10 mi
7:58 AM31 °FSunny.1 mph85%30.48 "Hg10 mi
6:58 AM29 °FClear.3 mph79%30.47 "Hg10 mi
5:58 AM30 °FClear.5 mph76%30.45 "Hg10 mi
4:58 AM29 °FClear.5 mph77%30.44 "Hg10 mi
3:58 AM29 °FClear.5 mph77%30.43 "Hg10 mi
2:58 AM30 °FClear.3 mph75%30.43 "Hg10 mi
1:58 AM30 °FClear.3 mph76%30.43 "Hg10 mi
12:58 AM33 °FClear.6 mph63%30.42 "Hg10 mi
11:58 PM
Fri, Feb 5
30 °FClear.2 mph83%30.42 "Hg10 mi
10:58 PM33 °FClear.2 mph69%30.41 "Hg10 mi
9:58 PM34 °FClear.1 mph66%30.40 "Hg10 mi
8:58 PM36 °FClear.5 mph60%30.39 "Hg10 mi
7:58 PM38 °FClear.5 mph59%30.38 "Hg10 mi
6:58 PM39 °FClear.3 mph56%30.36 "Hg10 mi
5:58 PM41 °FClear.7 mph51%30.35 "Hg10 mi
4:58 PM42 °FSunny.10 mph51%30.30 "Hg10 mi
Weather by CustomWeather, © 2016

See weather overviewHow to use our weather pages